Peotone Weather
Peotone-Weather Station Historical Data
Daily Summary for February 4, 2019 Units:  English    Metric   Both
Daily Weekly Monthly Yearly Custom
  High: Low: Average:
Temperature: 15 °F -2 °F 6.7 °F
Dew Point: 2 °F -10 °F -3.3 °F
Humidity: 72% 51% 63%
Wind Speed: 18mph 5mph 11.5mph
Wind Gust: 28mph - -
Wind- - West
Pressure: 30.33 in 30.21 in -
Precipitation: 0.00 in    
Historical Graphs
 
 
Tabular Data for February 4, 2019
Time Temperature Dew Point Pressure Wind Wind Speed Wind Gust Humidity Rainfall Rate (Hourly) solar
00:04 6 °F -4 °F 30.28 in WNW 12 mph 20 mph 62% 0.00 in 0 W/m2
00:09 6 °F -4 °F 30.28 in WNW 12 mph 20 mph 63% 0.00 in 0 W/m2
00:14 6 °F -3 °F 30.28 in WNW 10 mph 20 mph 66% 0.00 in 0 W/m2
00:19 5 °F -3 °F 30.28 in WNW 13 mph 20 mph 67% 0.00 in 0 W/m2
00:24 5 °F -3 °F 30.28 in WNW 14 mph 22 mph 68% 0.00 in 0 W/m2
00:29 5 °F -3 °F 30.28 in WNW 11 mph 22 mph 68% 0.00 in 0 W/m2
00:34 5 °F -3 °F 30.28 in WNW 13 mph 17 mph 68% 0.00 in 0 W/m2
00:39 5 °F -3 °F 30.28 in WNW 12 mph 20 mph 69% 0.00 in 0 W/m2
00:44 4 °F -4 °F 30.28 in WNW 11 mph 20 mph 69% 0.00 in 0 W/m2
00:49 4 °F -4 °F 30.28 in WNW 12 mph 17 mph 69% 0.00 in 0 W/m2
00:54 4 °F -4 °F 30.28 in WNW 11 mph 17 mph 69% 0.00 in 0 W/m2
00:59 4 °F -4 °F 30.28 in WNW 11 mph 18 mph 69% 0.00 in 0 W/m2
01:04 4 °F -4 °F 30.28 in WNW 12 mph 20 mph 70% 0.00 in 0 W/m2
01:09 3 °F -4 °F 30.28 in WNW 11 mph 20 mph 70% 0.00 in 0 W/m2
01:14 3 °F -4 °F 30.28 in West 13 mph 18 mph 70% 0.00 in 0 W/m2
01:19 3 °F -5 °F 30.28 in WNW 12 mph 18 mph 69% 0.00 in 0 W/m2
01:24 3 °F -5 °F 30.28 in WNW 15 mph 22 mph 68% 0.00 in 0 W/m2
01:29 3 °F -5 °F 30.28 in WNW 12 mph 22 mph 68% 0.00 in 0 W/m2
01:34 3 °F -5 °F 30.28 in West 12 mph 17 mph 68% 0.00 in 0 W/m2
01:39 3 °F -5 °F 30.28 in WNW 11 mph 17 mph 68% 0.00 in 0 W/m2
01:44 3 °F -5 °F 30.28 in WNW 12 mph 20 mph 68% 0.00 in 0 W/m2
01:49 2 °F -5 °F 30.28 in WNW 12 mph 20 mph 69% 0.00 in 0 W/m2
01:54 2 °F -6 °F 30.28 in WNW 12 mph 21 mph 69% 0.00 in 0 W/m2
01:59 2 °F -6 °F 30.28 in WNW 11 mph 21 mph 69% 0.00 in 0 W/m2
02:04 2 °F -6 °F 30.28 in West 12 mph 18 mph 69% 0.00 in 0 W/m2
02:09 2 °F -6 °F 30.28 in West 11 mph 18 mph 69% 0.00 in 0 W/m2
02:14 2 °F -6 °F 30.28 in West 10 mph 18 mph 69% 0.00 in 0 W/m2
02:19 2 °F -6 °F 30.28 in West 9 mph 18 mph 70% 0.00 in 0 W/m2
02:24 2 °F -6 °F 30.28 in West 9 mph 14 mph 70% 0.00 in 0 W/m2
02:29 2 °F -6 °F 30.28 in West 10 mph 14 mph 70% 0.00 in 0 W/m2
02:34 1 °F -6 °F 30.28 in West 10 mph 16 mph 70% 0.00 in 0 W/m2
02:39 1 °F -6 °F 30.28 in West 11 mph 17 mph 70% 0.00 in 0 W/m2
02:44 1 °F -6 °F 30.28 in WNW 12 mph 18 mph 70% 0.00 in 0 W/m2
02:49 1 °F -7 °F 30.28 in West 10 mph 18 mph 69% 0.00 in 0 W/m2
02:54 1 °F -7 °F 30.28 in West 12 mph 21 mph 69% 0.00 in 0 W/m2
02:59 1 °F -7 °F 30.28 in WNW 11 mph 21 mph 69% 0.00 in 0 W/m2
03:04 1 °F -7 °F 30.28 in WNW 8 mph 10 mph 69% 0.00 in 0 W/m2
03:09 1 °F -7 °F 30.28 in West 10 mph 16 mph 69% 0.00 in 0 W/m2
03:14 0 °F -7 °F 30.28 in WNW 10 mph 17 mph 70% 0.00 in 0 W/m2
03:19 0 °F -7 °F 30.28 in West 11 mph 20 mph 70% 0.00 in 0 W/m2
03:24 0 °F -7 °F 30.28 in West 10 mph 20 mph 71% 0.00 in 0 W/m2
03:29 0 °F -7 °F 30.28 in WNW 10 mph 17 mph 71% 0.00 in 0 W/m2
03:34 0 °F -7 °F 30.28 in West 11 mph 17 mph 71% 0.00 in 0 W/m2
03:39 0 °F -7 °F 30.28 in West 9 mph 21 mph 71% 0.00 in 0 W/m2
03:44 0 °F -8 °F 30.29 in West 13 mph 21 mph 71% 0.00 in 0 W/m2
03:49 -1 °F -8 °F 30.29 in WNW 13 mph 20 mph 71% 0.00 in 0 W/m2
03:54 -1 °F -7 °F 30.29 in WNW 12 mph 21 mph 72% 0.00 in 0 W/m2
03:59 -1 °F -8 °F 30.29 in WNW 12 mph 21 mph 71% 0.00 in 0 W/m2
04:04 -1 °F -8 °F 30.29 in West 10 mph 17 mph 71% 0.00 in 0 W/m2
04:09 -1 °F -8 °F 30.29 in West 10 mph 17 mph 71% 0.00 in 0 W/m2
04:14 -1 °F -8 °F 30.29 in WNW 12 mph 21 mph 71% 0.00 in 0 W/m2
04:19 -1 °F -8 °F 30.29 in West 11 mph 21 mph 70% 0.00 in 0 W/m2
04:24 -1 °F -8 °F 30.30 in West 11 mph 16 mph 71% 0.00 in 0 W/m2
04:29 -1 °F -8 °F 30.30 in West 12 mph 18 mph 71% 0.00 in 0 W/m2
04:34 -1 °F -8 °F 30.30 in WNW 10 mph 18 mph 71% 0.00 in 0 W/m2
04:39 -1 °F -8 °F 30.30 in West 11 mph 17 mph 72% 0.00 in 0 W/m2
04:44 -1 °F -8 °F 30.30 in West 10 mph 20 mph 72% 0.00 in 0 W/m2
04:49 -1 °F -8 °F 30.30 in West 11 mph 20 mph 72% 0.00 in 0 W/m2
04:54 -1 °F -8 °F 30.30 in WNW 12 mph 17 mph 72% 0.00 in 0 W/m2
04:59 -1 °F -8 °F 30.30 in West 11 mph 18 mph 72% 0.00 in 0 W/m2
05:04 -1 °F -8 °F 30.30 in West 9 mph 18 mph 72% 0.00 in 0 W/m2
05:09 -2 °F -9 °F 30.30 in West 9 mph 17 mph 71% 0.00 in 0 W/m2
05:14 -2 °F -9 °F 30.30 in West 10 mph 17 mph 71% 0.00 in 0 W/m2
05:19 -2 °F -9 °F 30.30 in West 12 mph 18 mph 71% 0.00 in 0 W/m2
05:24 -2 °F -9 °F 30.30 in West 11 mph 20 mph 71% 0.00 in 0 W/m2
05:29 -2 °F -9 °F 30.30 in West 11 mph 20 mph 71% 0.00 in 0 W/m2
05:34 -2 °F -9 °F 30.30 in West 10 mph 15 mph 71% 0.00 in 0 W/m2
05:39 -2 °F -9 °F 30.30 in West 10 mph 15 mph 70% 0.00 in 0 W/m2
05:44 -2 °F -9 °F 30.29 in West 12 mph 18 mph 70% 0.00 in 0 W/m2
05:49 -2 °F -9 °F 30.29 in West 9 mph 18 mph 70% 0.00 in 0 W/m2
05:54 -2 °F -9 °F 30.29 in West 9 mph 17 mph 70% 0.00 in 0 W/m2
05:59 -2 °F -10 °F 30.29 in West 11 mph 18 mph 70% 0.00 in 0 W/m2
06:04 -2 °F -10 °F 30.29 in WNW 9 mph 18 mph 70% 0.00 in 0 W/m2
06:09 -2 °F -10 °F 30.29 in West 10 mph 17 mph 70% 0.00 in 0 W/m2
06:14 -2 °F -10 °F 30.29 in West 9 mph 18 mph 70% 0.00 in 0 W/m2
06:19 -2 °F -10 °F 30.29 in West 10 mph 18 mph 70% 0.00 in 0 W/m2
06:24 -2 °F -10 °F 30.29 in West 10 mph 16 mph 70% 0.00 in 7 W/m2
06:29 -2 °F -10 °F 30.29 in WNW 10 mph 18 mph 70% 0.00 in 9 W/m2
06:34 -2 °F -10 °F 30.29 in West 10 mph 18 mph 70% 0.00 in 12 W/m2
06:39 -2 °F -10 °F 30.30 in West 11 mph 16 mph 70% 0.00 in 16 W/m2
06:44 -2 °F -10 °F 30.30 in West 12 mph 17 mph 70% 0.00 in 18 W/m2
06:49 -2 °F -10 °F 30.30 in West 10 mph 17 mph 70% 0.00 in 19 W/m2
06:54 -2 °F -10 °F 30.30 in WNW 12 mph 18 mph 70% 0.00 in 28 W/m2
06:59 -2 °F -9 °F 30.30 in West 11 mph 18 mph 70% 0.00 in 28 W/m2
07:04 -2 °F -9 °F 30.30 in West 11 mph 18 mph 69% 0.00 in 33 W/m2
07:09 -2 °F -9 °F 30.30 in WNW 12 mph 17 mph 69% 0.00 in 44 W/m2
07:14 -2 °F -9 °F 30.30 in WNW 13 mph 20 mph 68% 0.00 in 56 W/m2
07:19 -2 °F -10 °F 30.30 in West 13 mph 21 mph 68% 0.00 in 128 W/m2
07:24 -1 °F -9 °F 30.31 in West 13 mph 21 mph 68% 0.00 in 156 W/m2
07:29 -1 °F -9 °F 30.31 in WNW 13 mph 23 mph 68% 0.00 in 174 W/m2
07:34 -1 °F -9 °F 30.31 in WNW 11 mph 23 mph 67% 0.00 in 195 W/m2
07:39 -1 °F -9 °F 30.31 in West 11 mph 20 mph 67% 0.00 in 213 W/m2
07:44 -1 °F -9 °F 30.31 in West 11 mph 20 mph 67% 0.00 in 230 W/m2
07:49 -1 °F -9 °F 30.31 in West 13 mph 20 mph 68% 0.00 in 239 W/m2
07:54 -1 °F -9 °F 30.32 in West 13 mph 20 mph 67% 0.00 in 262 W/m2
07:59 -1 °F -9 °F 30.32 in West 13 mph 21 mph 66% 0.00 in 262 W/m2
08:04 -1 °F -9 °F 30.32 in West 11 mph 21 mph 67% 0.00 in 269 W/m2
08:09 0 °F -9 °F 30.32 in WSW 11 mph 20 mph 67% 0.00 in 313 W/m2
08:14 0 °F -8 °F 30.32 in West 13 mph 20 mph 67% 0.00 in 350 W/m2
08:19 0 °F -9 °F 30.32 in West 13 mph 20 mph 66% 0.00 in 350 W/m2
08:24 0 °F -8 °F 30.32 in West 15 mph 20 mph 66% 0.00 in 366 W/m2
08:29 0 °F -8 °F 30.32 in West 12 mph 20 mph 65% 0.00 in 371 W/m2
08:34 1 °F -8 °F 30.32 in WSW 13 mph 20 mph 66% 0.00 in 357 W/m2
08:39 0 °F -8 °F 30.33 in West 12 mph 20 mph 66% 0.00 in 406 W/m2
08:44 1 °F -8 °F 30.33 in West 13 mph 22 mph 66% 0.00 in 404 W/m2
08:49 1 °F -8 °F 30.33 in West 12 mph 22 mph 64% 0.00 in 436 W/m2
08:54 2 °F -8 °F 30.33 in West 13 mph 22 mph 63% 0.00 in 461 W/m2
08:59 2 °F -8 °F 30.33 in West 11 mph 22 mph 63% 0.00 in 473 W/m2
09:04 2 °F -8 °F 30.33 in West 13 mph 21 mph 62% 0.00 in 473 W/m2
09:09 2 °F -8 °F 30.33 in West 13 mph 20 mph 62% 0.00 in 485 W/m2
09:14 2 °F -8 °F 30.33 in WSW 14 mph 22 mph 64% 0.00 in 406 W/m2
09:19 2 °F -8 °F 30.33 in West 13 mph 22 mph 63% 0.00 in 394 W/m2
09:24 3 °F -7 °F 30.33 in WNW 15 mph 21 mph 62% 0.00 in 149 W/m2
09:29 3 °F -7 °F 30.33 in WNW 18 mph 21 mph 63% 0.00 in 199 W/m2
09:34 4 °F -6 °F 30.33 in West 13 mph 20 mph 62% 0.00 in 279 W/m2
09:39 4 °F -7 °F 30.33 in West 12 mph 20 mph 61% 0.00 in 211 W/m2
09:44 3 °F -7 °F 30.33 in West 14 mph 20 mph 61% 0.00 in 265 W/m2
09:49 4 °F -6 °F 30.33 in West 12 mph 21 mph 62% 0.00 in 197 W/m2
09:54 4 °F -6 °F 30.33 in West 11 mph 21 mph 60% 0.00 in 97 W/m2
09:59 4 °F -7 °F 30.33 in West 14 mph 21 mph 59% 0.00 in 218 W/m2
10:04 4 °F -6 °F 30.33 in WSW 15 mph 21 mph 60% 0.00 in 229 W/m2
10:09 4 °F -6 °F 30.33 in West 13 mph 22 mph 60% 0.00 in 195 W/m2
10:14 5 °F -6 °F 30.33 in West 13 mph 22 mph 60% 0.00 in 234 W/m2
10:19 5 °F -7 °F 30.33 in West 14 mph 22 mph 58% 0.00 in 285 W/m2
10:24 5 °F -5 °F 30.33 in West 10 mph 21 mph 62% 0.00 in 271 W/m2
10:29 5 °F -5 °F 30.33 in West 11 mph 18 mph 63% 0.00 in 308 W/m2
10:34 5 °F -5 °F 30.33 in West 14 mph 24 mph 62% 0.00 in 338 W/m2
10:39 5 °F -5 °F 30.33 in West 13 mph 24 mph 61% 0.00 in 345 W/m2
10:44 5 °F -5 °F 30.33 in West 13 mph 21 mph 60% 0.00 in 302 W/m2
10:49 5 °F -5 °F 30.33 in West 16 mph 21 mph 60% 0.00 in 322 W/m2
10:54 6 °F -5 °F 30.33 in WNW 13 mph 21 mph 60% 0.00 in 302 W/m2
10:59 7 °F -4 °F 30.32 in West 15 mph 22 mph 59% 0.00 in 315 W/m2
11:04 7 °F -5 °F 30.33 in West 14 mph 22 mph 58% 0.00 in 707 W/m2
11:09 6 °F -5 °F 30.33 in West 15 mph 25 mph 58% 0.00 in 707 W/m2
11:14 7 °F -5 °F 30.33 in West 12 mph 25 mph 58% 0.00 in 788 W/m2
11:19 8 °F -5 °F 30.32 in West 14 mph 23 mph 56% 0.00 in 747 W/m2
11:24 8 °F -4 °F 30.32 in West 14 mph 23 mph 56% 0.00 in 835 W/m2
11:29 8 °F -5 °F 30.32 in West 12 mph 23 mph 56% 0.00 in 814 W/m2
11:34 7 °F -4 °F 30.32 in West 13 mph 22 mph 57% 0.00 in 383 W/m2
11:39 8 °F -4 °F 30.32 in West 14 mph 25 mph 57% 0.00 in 773 W/m2
11:44 9 °F -3 °F 30.32 in West 13 mph 25 mph 57% 0.00 in 795 W/m2
11:49 9 °F -4 °F 30.32 in West 16 mph 24 mph 55% 0.00 in 837 W/m2
11:54 9 °F -4 °F 30.32 in West 14 mph 24 mph 55% 0.00 in 844 W/m2
11:59 10 °F -3 °F 30.31 in West 14 mph 22 mph 55% 0.00 in 844 W/m2
12:04 9 °F -4 °F 30.31 in West 15 mph 23 mph 55% 0.00 in 835 W/m2
12:09 9 °F -4 °F 30.31 in West 14 mph 23 mph 55% 0.00 in 809 W/m2
12:14 9 °F -4 °F 30.31 in West 13 mph 22 mph 55% 0.00 in 809 W/m2
12:19 10 °F -3 °F 30.30 in West 14 mph 23 mph 55% 0.00 in 773 W/m2
12:24 10 °F -3 °F 30.30 in West 14 mph 23 mph 54% 0.00 in 777 W/m2
12:29 10 °F -3 °F 30.30 in West 16 mph 24 mph 55% 0.00 in 789 W/m2
12:34 10 °F -3 °F 30.30 in West 14 mph 26 mph 54% 0.00 in 766 W/m2
12:39 11 °F -2 °F 30.30 in West 15 mph 28 mph 53% 0.00 in 766 W/m2
12:44 11 °F -3 °F 30.30 in West 14 mph 28 mph 53% 0.00 in 807 W/m2
12:49 11 °F -2 °F 30.29 in West 12 mph 25 mph 53% 0.00 in 740 W/m2
12:54 12 °F -2 °F 30.29 in WSW 12 mph 25 mph 54% 0.00 in 833 W/m2
12:59 13 °F -1 °F 30.28 in West 13 mph 18 mph 52% 0.00 in 824 W/m2
13:04 11 °F -3 °F 30.28 in West 14 mph 23 mph 51% 0.00 in 824 W/m2
13:09 12 °F -2 °F 30.28 in West 13 mph 23 mph 53% 0.00 in 805 W/m2
13:14 12 °F -2 °F 30.27 in West 13 mph 22 mph 52% 0.00 in 754 W/m2
13:19 13 °F -2 °F 30.27 in West 14 mph 21 mph 51% 0.00 in 744 W/m2
13:24 12 °F -2 °F 30.27 in West 15 mph 22 mph 51% 0.00 in 752 W/m2
13:29 12 °F -2 °F 30.27 in WSW 13 mph 22 mph 52% 0.00 in 752 W/m2
13:34 13 °F -2 °F 30.27 in WSW 15 mph 22 mph 51% 0.00 in 766 W/m2
13:39 13 °F -2 °F 30.27 in West 15 mph 23 mph 51% 0.00 in 744 W/m2
13:44 13 °F -1 °F 30.27 in West 15 mph 24 mph 52% 0.00 in 693 W/m2
13:49 13 °F -2 °F 30.26 in West 13 mph 24 mph 51% 0.00 in 680 W/m2
13:54 13 °F -2 °F 30.26 in WSW 13 mph 20 mph 51% 0.00 in 696 W/m2
13:59 13 °F -1 °F 30.26 in West 15 mph 23 mph 51% 0.00 in 696 W/m2
14:04 13 °F -1 °F 30.26 in WSW 18 mph 28 mph 51% 0.00 in 671 W/m2
14:09 13 °F -1 °F 30.26 in West 16 mph 28 mph 51% 0.00 in 671 W/m2
14:14 13 °F -1 °F 30.26 in West 13 mph 25 mph 52% 0.00 in 703 W/m2
14:19 14 °F -1 °F 30.26 in West 13 mph 25 mph 51% 0.00 in 694 W/m2
14:24 14 °F -1 °F 30.26 in West 14 mph 23 mph 51% 0.00 in 694 W/m2
14:29 14 °F -1 °F 30.26 in West 16 mph 28 mph 51% 0.00 in 533 W/m2
14:34 13 °F -1 °F 30.26 in West 14 mph 28 mph 51% 0.00 in 613 W/m2
14:39 14 °F -1 °F 30.26 in West 16 mph 24 mph 52% 0.00 in 504 W/m2
14:44 14 °F -1 °F 30.26 in West 15 mph 28 mph 51% 0.00 in 396 W/m2
14:49 14 °F 0 °F 30.25 in West 14 mph 28 mph 52% 0.00 in 206 W/m2
14:54 13 °F -1 °F 30.25 in West 17 mph 25 mph 52% 0.00 in 313 W/m2
14:59 14 °F 0 °F 30.25 in West 15 mph 25 mph 52% 0.00 in 294 W/m2
15:04 14 °F 0 °F 30.25 in West 15 mph 24 mph 53% 0.00 in 288 W/m2
15:09 14 °F 0 °F 30.25 in West 13 mph 25 mph 52% 0.00 in 262 W/m2
15:14 14 °F 0 °F 30.25 in West 14 mph 25 mph 52% 0.00 in 213 W/m2
15:19 14 °F 0 °F 30.25 in West 13 mph 22 mph 52% 0.00 in 227 W/m2
15:24 14 °F 0 °F 30.25 in West 13 mph 24 mph 52% 0.00 in 237 W/m2
15:29 14 °F 0 °F 30.25 in West 12 mph 24 mph 53% 0.00 in 236 W/m2
15:34 15 °F 0 °F 30.25 in West 13 mph 21 mph 52% 0.00 in 148 W/m2
15:39 15 °F 0 °F 30.25 in West 8 mph 20 mph 52% 0.00 in 288 W/m2
15:44 15 °F 1 °F 30.25 in West 13 mph 21 mph 52% 0.00 in 128 W/m2
15:49 15 °F 0 °F 30.25 in West 14 mph 22 mph 51% 0.00 in 204 W/m2
15:54 15 °F 0 °F 30.24 in West 13 mph 22 mph 52% 0.00 in 113 W/m2
15:59 14 °F 0 °F 30.25 in West 12 mph 18 mph 52% 0.00 in 172 W/m2
16:04 14 °F 0 °F 30.25 in West 11 mph 16 mph 53% 0.00 in 253 W/m2
16:09 15 °F 1 °F 30.24 in West 14 mph 21 mph 52% 0.00 in 274 W/m2
16:14 15 °F 1 °F 30.24 in West 9 mph 21 mph 52% 0.00 in 237 W/m2
16:19 15 °F 1 °F 30.24 in West 11 mph 17 mph 53% 0.00 in 102 W/m2
16:24 14 °F 0 °F 30.24 in WSW 10 mph 20 mph 52% 0.00 in 193 W/m2
16:29 15 °F 0 °F 30.24 in West 11 mph 21 mph 52% 0.00 in 193 W/m2
16:34 15 °F 0 °F 30.24 in West 12 mph 21 mph 51% 0.00 in 181 W/m2
16:39 15 °F 0 °F 30.24 in WSW 14 mph 21 mph 51% 0.00 in 158 W/m2
16:44 15 °F 0 °F 30.24 in West 10 mph 21 mph 51% 0.00 in 153 W/m2
16:49 15 °F 0 °F 30.24 in WSW 11 mph 17 mph 52% 0.00 in 135 W/m2
16:54 15 °F 0 °F 30.24 in WSW 10 mph 16 mph 52% 0.00 in 121 W/m2
16:59 15 °F 0 °F 30.24 in WSW 14 mph 22 mph 51% 0.00 in 114 W/m2
17:04 15 °F 0 °F 30.24 in West 14 mph 22 mph 51% 0.00 in 42 W/m2
17:09 14 °F 0 °F 30.23 in West 12 mph 22 mph 52% 0.00 in 33 W/m2
17:14 14 °F 0 °F 30.23 in WSW 12 mph 20 mph 53% 0.00 in 40 W/m2
17:19 14 °F 0 °F 30.23 in WSW 12 mph 20 mph 53% 0.00 in 42 W/m2
17:24 14 °F 0 °F 30.23 in WSW 11 mph 18 mph 54% 0.00 in 28 W/m2
17:29 14 °F 0 °F 30.23 in West 11 mph 18 mph 54% 0.00 in 18 W/m2
17:34 14 °F 0 °F 30.23 in WSW 11 mph 18 mph 54% 0.00 in 16 W/m2
17:39 13 °F 0 °F 30.23 in WSW 11 mph 18 mph 54% 0.00 in 11 W/m2
17:44 13 °F 0 °F 30.23 in WSW 11 mph 17 mph 55% 0.00 in 7 W/m2
17:49 13 °F 1 °F 30.23 in West 8 mph 16 mph 56% 0.00 in 0 W/m2
17:54 13 °F 1 °F 30.23 in West 6 mph 13 mph 57% 0.00 in 0 W/m2
17:59 13 °F 1 °F 30.24 in West 6 mph 12 mph 58% 0.00 in 0 W/m2
18:04 13 °F 1 °F 30.24 in West 9 mph 15 mph 59% 0.00 in 0 W/m2
18:09 13 °F 1 °F 30.24 in WSW 10 mph 15 mph 58% 0.00 in 0 W/m2
18:14 13 °F 1 °F 30.24 in West 8 mph 14 mph 58% 0.00 in 0 W/m2
18:19 13 °F 1 °F 30.24 in West 7 mph 12 mph 59% 0.00 in 0 W/m2
18:24 13 °F 1 °F 30.24 in WSW 8 mph 13 mph 60% 0.00 in 0 W/m2
18:29 13 °F 1 °F 30.24 in West 7 mph 13 mph 60% 0.00 in 0 W/m2
18:34 12 °F 1 °F 30.24 in West 10 mph 17 mph 60% 0.00 in 0 W/m2
18:39 12 °F 1 °F 30.24 in West 9 mph 17 mph 60% 0.00 in 0 W/m2
18:44 13 °F 1 °F 30.24 in WSW 8 mph 14 mph 60% 0.00 in 0 W/m2
18:49 13 °F 1 °F 30.24 in WSW 6 mph 14 mph 60% 0.00 in 0 W/m2
18:54 13 °F 2 °F 30.24 in West 6 mph 12 mph 61% 0.00 in 0 W/m2
18:59 13 °F 2 °F 30.24 in West 7 mph 10 mph 61% 0.00 in 0 W/m2
19:04 12 °F 2 °F 30.24 in West 6 mph 10 mph 62% 0.00 in 0 W/m2
19:09 12 °F 2 °F 30.24 in West 6 mph 9 mph 62% 0.00 in 0 W/m2
19:14 12 °F 2 °F 30.24 in West 6 mph 10 mph 63% 0.00 in 0 W/m2
19:19 12 °F 2 °F 30.24 in West 8 mph 13 mph 63% 0.00 in 0 W/m2
19:24 12 °F 2 °F 30.24 in WSW 7 mph 13 mph 63% 0.00 in 0 W/m2
19:29 12 °F 2 °F 30.24 in WSW 8 mph 14 mph 63% 0.00 in 0 W/m2
19:34 12 °F 2 °F 30.24 in WSW 7 mph 14 mph 64% 0.00 in 0 W/m2
19:39 12 °F 2 °F 30.24 in West 8 mph 13 mph 64% 0.00 in 0 W/m2
19:44 12 °F 2 °F 30.24 in WSW 8 mph 13 mph 64% 0.00 in 0 W/m2
19:49 11 °F 2 °F 30.24 in West 7 mph 13 mph 65% 0.00 in 0 W/m2
19:54 11 °F 2 °F 30.24 in West 8 mph 12 mph 65% 0.00 in 0 W/m2
19:59 11 °F 2 °F 30.24 in West 7 mph 14 mph 65% 0.00 in 0 W/m2
20:04 11 °F 2 °F 30.24 in WSW 7 mph 14 mph 66% 0.00 in 0 W/m2
20:09 11 °F 2 °F 30.24 in West 8 mph 10 mph 66% 0.00 in 0 W/m2
20:14 11 °F 2 °F 30.24 in West 7 mph 12 mph 66% 0.00 in 0 W/m2
20:19 11 °F 2 °F 30.24 in West 7 mph 12 mph 67% 0.00 in 0 W/m2
20:24 10 °F 2 °F 30.24 in West 5 mph 10 mph 67% 0.00 in 0 W/m2
20:29 10 °F 2 °F 30.24 in West 7 mph 12 mph 67% 0.00 in 0 W/m2
20:34 10 °F 2 °F 30.24 in West 7 mph 13 mph 67% 0.00 in 0 W/m2
20:39 10 °F 1 °F 30.24 in West 8 mph 13 mph 67% 0.00 in 0 W/m2
20:44 10 °F 1 °F 30.24 in West 7 mph 12 mph 67% 0.00 in 0 W/m2
20:49 10 °F 1 °F 30.24 in West 8 mph 13 mph 67% 0.00 in 0 W/m2
20:54 10 °F 1 °F 30.24 in West 9 mph 13 mph 67% 0.00 in 0 W/m2
20:59 10 °F 1 °F 30.24 in West 10 mph 13 mph 67% 0.00 in 0 W/m2
21:04 10 °F 1 °F 30.24 in West 8 mph 13 mph 67% 0.00 in 0 W/m2
21:09 10 °F 1 °F 30.24 in West 8 mph 13 mph 67% 0.00 in 0 W/m2
21:14 10 °F 1 °F 30.24 in West 8 mph 15 mph 68% 0.00 in 0 W/m2
21:19 10 °F 1 °F 30.24 in West 9 mph 16 mph 68% 0.00 in 0 W/m2
21:24 10 °F 1 °F 30.24 in West 9 mph 16 mph 68% 0.00 in 0 W/m2
21:29 10 °F 1 °F 30.24 in WSW 7 mph 13 mph 68% 0.00 in 0 W/m2
21:34 10 °F 2 °F 30.24 in WSW 7 mph 10 mph 69% 0.00 in 0 W/m2
21:39 10 °F 1 °F 30.24 in West 9 mph 14 mph 68% 0.00 in 0 W/m2
21:44 10 °F 1 °F 30.24 in West 10 mph 15 mph 68% 0.00 in 0 W/m2
21:49 10 °F 1 °F 30.24 in West 11 mph 16 mph 68% 0.00 in 0 W/m2
21:54 10 °F 1 °F 30.24 in West 12 mph 21 mph 68% 0.00 in 0 W/m2
21:59 9 °F 1 °F 30.24 in West 13 mph 22 mph 69% 0.00 in 0 W/m2
22:04 9 °F 1 °F 30.24 in West 10 mph 22 mph 69% 0.00 in 0 W/m2
22:09 9 °F 1 °F 30.24 in West 11 mph 20 mph 69% 0.00 in 0 W/m2
22:14 9 °F 1 °F 30.24 in West 11 mph 20 mph 69% 0.00 in 0 W/m2
22:19 9 °F 1 °F 30.24 in West 11 mph 16 mph 69% 0.00 in 0 W/m2
22:24 9 °F 1 °F 30.24 in West 12 mph 21 mph 69% 0.00 in 0 W/m2
22:29 9 °F 1 °F 30.24 in WSW 8 mph 21 mph 69% 0.00 in 0 W/m2
22:34 9 °F 2 °F 30.24 in West 12 mph 21 mph 70% 0.00 in 0 W/m2
22:39 9 °F 1 °F 30.24 in West 12 mph 21 mph 69% 0.00 in 0 W/m2
22:44 9 °F 1 °F 30.24 in West 13 mph 24 mph 69% 0.00 in 0 W/m2
22:49 9 °F 1 °F 30.24 in West 12 mph 24 mph 69% 0.00 in 0 W/m2
22:54 9 °F 1 °F 30.24 in WSW 13 mph 20 mph 69% 0.00 in 0 W/m2
22:59 9 °F 1 °F 30.23 in West 11 mph 20 mph 69% 0.00 in 0 W/m2
23:04 9 °F 1 °F 30.23 in WSW 12 mph 22 mph 69% 0.00 in 0 W/m2
23:09 9 °F 1 °F 30.23 in WSW 14 mph 22 mph 69% 0.00 in 0 W/m2
23:14 9 °F 1 °F 30.23 in West 12 mph 22 mph 69% 0.00 in 0 W/m2
23:19 9 °F 1 °F 30.22 in West 12 mph 22 mph 69% 0.00 in 0 W/m2
23:24 9 °F 1 °F 30.22 in West 12 mph 20 mph 70% 0.00 in 0 W/m2
23:29 9 °F 2 °F 30.22 in West 14 mph 22 mph 70% 0.00 in 0 W/m2
23:34 9 °F 1 °F 30.22 in West 13 mph 22 mph 69% 0.00 in 0 W/m2
23:39 9 °F 1 °F 30.22 in West 11 mph 21 mph 69% 0.00 in 0 W/m2
23:44 9 °F 1 °F 30.22 in West 13 mph 23 mph 68% 0.00 in 0 W/m2
23:49 9 °F 1 °F 30.22 in West 15 mph 26 mph 67% 0.00 in 0 W/m2
23:54 9 °F 0 °F 30.22 in WSW 14 mph 26 mph 66% 0.00 in 0 W/m2
23:59 9 °F 0 °F 30.21 in WSW 14 mph 18 mph 66% 0.00 in 0 W/m2
Peotne Weather
Compliments of Weather Underground - 4 mb